Volver al catálogo

FENGYUN 1C DEB

ActivoSSO
NORAD 36207·DEBRIS·🇨🇳 China

Lanzado May 10, 1999 desde Taiyuan Satellite Launch Center

Loading…

Próximos Pases (próximas 24 horas)

TLE

EnvejeciendoSource: Space-Track

Época: Sep 9, 2026, 11:25 UTC

1 36207U 99025DUG 26252.47588000  .00001756  00000-0  10395-2 0  9991
2 36207  98.5875 127.2942 0139310 281.9197  76.6381 14.04186463637636

Sigue FENGYUN 1C DEB en tiempo real con AllMySat

Download on the App Store